Location: Asheville, NC
(35.6000°N, 82.5500°W)
Time: 20:20:53

STARS - Pass Details

Date: 15 March 2018
Orbit: 625 x 641 km, 98.3° (Epoch: 19 March)

Event Time Altitude Azimuth Distance (km) Brightness Sun altitude
Rises 20:48:56 0° 354° (N) 2,926 ? -15.2°
Reaches altitude 10° 20:51:42 10° 336° (NNW) 2,011 ? -15.8°
Maximum altitude 20:54:39 18° 293° (WNW) 1,538 ? -16.4°
Drops below altitude 10° 20:57:36 10° 250° (WSW) 1,997 ? -17.0°
Sets 21:00:21 0° 231° (SW) 2,897 ? -17.5°
